Location: The Rolnick Observatory
(41.1711°N, 73.3275°W)
Time: 03:13:10
(UTC-04:00)

Daily predictions for brighter satellites

Satellite Brightness Start Highest point End
(mag) Time Altitude Azimuth Time Altitude Azimuth Time Altitude Azimuth
FALCON 9 R/B 4.5 00:06:24 53° SSW 00:10:08 65° SSE 00:55:18 10° E
Cosmos 2237 Rocket 3.7 00:12:25 31° NW 00:12:25 31° NW 00:16:47 10° N
COSMOS 2455 3.9 00:06:11 10° NNW 00:10:05 42° NNW 00:10:05 42° NNW
Cosmos 2369 Rocket 4.1 00:09:45 10° N 00:13:27 23° NE 00:13:27 23° NE
CENTAUR R/B 3.4 00:24:05 10° NW 00:30:30 57° WNW 00:30:30 57° WNW
ATLAS CENTAUR R/B 3.9 00:25:17 10° NW 00:33:12 45° NNW 00:33:12 45° NNW
USA 215 4.0 00:46:20 45° NE 00:46:48 46° NNE 00:52:59 10° NW
CZ-2C R/B 4.5 01:01:26 10° N 01:04:26 26° NW 01:04:26 26° NW
SL-16 R/B 4.1 01:21:37 22° NW 01:21:37 22° NW 01:25:18 10° N
Mayak 1.8 01:21:09 10° N 01:21:40 13° N 01:21:40 13° N
Cosmos 1943 Rocket 3.7 01:29:54 10° NNW 01:32:59 32° N 01:32:59 32° N
Cosmos 2369 Rocket 4.0 01:53:06 10° NNW 01:55:12 23° NW 01:55:12 23° NW
Cosmos 1943 4.4 02:12:12 36° NNW 02:12:12 36° NNW 02:16:01 10° NNE
BREEZE-M DEB (TANK) 3.9 02:11:46 64° NNE 02:11:46 64° NNE 02:24:31 10° ENE
SL-16 R/B 3.7 02:19:37 33° E 02:21:09 38° ENE 02:26:48 10° N
USA 229 DEB 4.2 02:16:34 10° NNW 02:23:39 58° NE 02:26:53 33° ESE
USA 229 4.2 02:16:41 10° NNW 02:23:45 58° NE 02:27:08 32° ESE
ADEOS Rocket 3.2 02:35:06 10° NNE 02:39:29 59° NNE 02:39:29 59° NNE
Cosmos 2221 4.3 02:43:51 30° NE 02:43:51 30° NE 02:46:15 10° NNE
NPP 4.0 02:45:49 10° NNE 02:50:12 60° N 02:50:12 60° N
Resurs 1-4 Rocket 2.4 02:59:37 10° NNE 03:04:34 63° E 03:04:34 63° E
ARIANE 5 R/B 3.0 03:01:29 10° NNE 03:06:36 55° E 03:06:36 55° E
COSMOS 2406 3.1 03:14:18 77° NW 03:14:18 77° NW 03:19:48 10° NNE
MOS 1 Rocket 3.7 03:13:53 10° NNE 03:17:37 56° ENE 03:17:37 56° ENE
Cosmos 292 Rocket 3.9 03:23:10 70° NNE 03:23:10 70° NNE 03:27:29 10° NNE
Sich 1 3.6 03:18:48 10° N 03:22:39 56° NE 03:22:39 56° NE
CZ-2D R/B 2.0 03:20:20 10° NNE 03:25:42 85° WNW 03:25:44 85° W
Cosmos 2285 Rocket 3.9 03:26:51 68° SW 03:27:40 80° WNW 03:34:07 10° NNE
Cosmos 1300 3.8 03:28:52 42° ENE 03:28:52 42° ENE 03:31:51 10° NNE
Tiangong 2 3.9 03:35:53 14° E 03:35:53 14° E 03:36:34 10° E
IRS-1D 3.5 03:31:53 10° N 03:37:03 69° WNW 03:37:11 69° W
BREEZE M DEB (TANK) 2.7 03:40:16 79° WNW 03:40:31 88° SSW 03:49:55 10° SE
CZ-3A R/B 3.9 03:37:57 10° NW 03:50:25 - SSE 03:43:26 36° W
MOZ.5/SAFIR/RUBIN 5/SL-8 3.7 03:44:20 67° SSE 03:44:57 86° ENE 03:49:41 10° NNW
Spot 4 Rocket 4.1 03:41:19 10° N 03:46:22 55° WNW 03:46:35 55° W
ADEOS II 3.8 03:45:21 10° NE 03:49:54 29° E 03:54:24 10° SSE
Cosmos 1515 Rocket 4.2 03:53:34 37° SSE 03:54:58 53° E 03:59:18 10° NNE
Lacrosse 5 2.6 03:50:08 10° NW 03:55:06 52° NE 04:00:03 10° ESE
COSMOS 2487 4.3 03:54:22 23° SE 03:55:10 26° E 03:58:10 10° NE
Cosmos 1459 Rocket 4.0 03:52:30 31° S 03:55:35 75° E 04:01:38 10° N
Cosmos 1633 Rocket 2.9 03:51:43 10° NNW 03:55:55 70° WNW 03:55:55 70° WNW
Cosmos 2082 Rocket 3.3 03:53:58 21° SSE 03:57:10 39° ESE 04:02:21 10° NE
ADEOS 3.6 03:53:25 10° N 03:58:33 59° WNW 03:59:25 52° WSW
Cosmos 1726 3.3 04:01:54 32° NW 04:01:54 32° NW 04:04:22 10° N
Cosmos 2228 Rocket 3.1 04:02:17 51° S 04:03:23 82° E 04:07:50 10° N
SL-16 R/B 3.1 04:04:43 35° W 04:04:44 35° W 04:10:22 10° NNW
USA 229 DEB 4.4 04:08:07 10° NW 04:14:05 31° WSW 04:14:05 31° WSW
USA 229 4.4 04:08:13 10° NW 04:14:19 32° WSW 04:14:19 32° WSW
Cosmos 1315 Rocket 4.2 04:11:31 10° NNW 04:13:44 25° NW 04:13:44 25° NW
BREEZE M DEB (TANK) 3.9 04:17:25 20° SE 04:17:25 20° SE 04:18:28 10° SE
Cosmos 1328 Rocket 3.6 04:17:08 50° WSW 04:17:53 58° W 04:22:11 10° N
NOSS 3-1 (A) 4.0 04:12:06 10° NW 04:19:48 77° WSW 04:28:16 10° SSE
Cosmos 1656 4.0 04:15:28 10° NNW 04:21:11 70° ENE 04:26:51 10° SSE
Meteor 2-3 Rocket 3.9 04:16:15 10° N 04:21:55 72° E 04:27:36 10° SSE
Meteor 2-10 4.4 04:22:32 33° SW 04:24:52 55° WNW 04:30:23 10° N
Cosmos 1892 2.8 04:23:47 10° N 04:27:38 78° E 04:31:11 12° SSE
Cosmos 2369 3.6 04:22:33 10° NNW 04:28:13 81° WSW 04:33:51 10° SSE
In-Cosmos 22 Rocket 4.2 04:25:45 10° NNW 04:30:58 53° W 04:34:27 20° SSW
Cosmos 2061 Rocket 4.1 04:28:51 22° SSW 04:33:03 64° W 04:39:27 10° N
UNKNOWN OBJECT B 3.8 04:31:38 10° N 04:35:13 30° WNW 04:35:51 29° W
Cosmos 923 Rocket 3.9 04:34:16 25° SSW 04:37:19 76° WNW 04:42:36 10° NNE
Cosmos 2016 Rocket 3.9 04:34:36 17° SSW 04:39:23 71° W 04:45:28 10° N
Cosmos 1933 Rocket 3.7 04:36:15 10° NNW 04:40:36 52° W 04:43:42 18° SSW
BREEZE-M DEB (TANK) 3.4 04:38:34 13° WNW 04:41:48 73° NNE 04:52:05 10° ESE
Cosmos 1151 Rocket 3.1 04:41:23 27° SW 04:43:26 53° W 04:47:38 10° N
Resurs 1-4 Rocket 3.7 04:40:48 10° NNW 04:44:09 17° WNW 04:45:39 16° W
Hubble Space Telescope 2.8 04:44:31 13° S 04:44:31 13° S 04:46:33 10° SSE
ARIANE 5 R/B 4.1 04:41:37 10° NNW 04:45:19 20° WNW 04:46:57 17° W
Cosmos 1864 Rocket 4.5 04:41:13 10° S 04:47:29 87° W 04:53:44 10° N
NOSS 3-1 (C) 4.4 04:40:25 10° NW 04:47:36 42° WSW 04:55:21 10° S
Meteor 1-27 4.2 04:44:07 16° SSW 04:48:38 66° WNW 04:54:12 10° N
Cosmos 1833 Rocket 2.6 04:45:25 18° SSW 04:49:38 79° WNW 04:55:20 10° NNE
Cosmos 1725 Rocket 3.9 04:48:06 10° SSW 04:54:16 77° W 05:00:28 10° N
Cosmos 1680 Rocket 3.5 04:51:05 17° SSW 04:55:11 69° WNW 05:00:31 10° NNE
Cosmos 1707 Rocket 4.3 04:55:05 10° S 04:59:23 55° E 05:03:40 10° NNE
Cosmos 2112 Rocket 4.0 04:58:06 14° SSW 05:02:45 69° WNW 05:08:06 10° NNE
CZ-4B R/B 3.1 04:59:18 10° N 05:03:47 72° WNW 05:08:17 10° SSW
PSLV R/B 4.1 05:02:49 23° WSW 05:03:55 29° SSW 05:06:47 10° SE
Okean O Rocket 1.6 04:59:29 10° NNE 05:03:56 88° WNW 05:08:19 10° SSW
CZ-2D R/B 4.1 05:03:01 10° NW 05:04:54 12° WNW 05:06:47 10° WNW
IRS-1C Rocket 4.4 05:00:46 10° NNE 05:06:03 71° ESE 05:11:17 10° S
Cosmos 1980 Rocket 2.6 05:01:27 10° NNW 05:07:03 67° ENE 05:12:38 10° SSE
Cosmos 1816 Rocket 4.5 05:03:38 10° N 05:09:56 76° W 05:16:16 10° S
Tiangong 2 1.1 05:08:15 19° W 05:10:27 81° NNW 05:13:42 10° ENE
Shenzhou-11 Module 2.2 05:14:00 15° W 05:16:29 66° N 05:19:33 10° ENE
Cosmos 2278 4.3 05:11:39 10° NW 05:16:37 32° WSW 05:21:33 10° SSW
Cosmos 1455 3.0 05:16:36 13° SW 05:19:28 30° WNW 05:22:50 10° NNW
Cosmos 2056 Rocket 3.9 05:15:40 10° NNW 05:21:04 75° ENE 05:26:29 10° SSE
Cosmos 1697 Rocket 2.8 05:15:55 10° NNW 05:21:27 55° WSW 05:26:57 10° S
Tsikada Rocket 4.2 05:15:53 10° NNW 05:21:59 52° W 05:28:08 10° SSW
ADEOS II 2.8 05:24:53 10° N 05:29:37 35° WNW 05:34:20 10° SW
EO 1 Del DPAF 3.8 05:26:47 10° SSE 05:30:35 65° ENE 05:34:24 10° N
COSMOS 2487 4.2 05:28:16 11° WSW 05:30:35 18° WNW 05:33:06 10° NNW
CZ-4B DEB 4.4 05:29:41 10° N 05:35:05 57° WNW 05:40:27 10° SSW
Lacrosse 5 2.8 05:33:35 10° WNW 05:37:49 27° WSW 05:42:03 10° S
CRYOSAT 2 4.3 05:35:04 10° N 05:39:54 72° W 05:44:43 10° SSW
Cosmos 2082 Rocket 3.2 05:36:22 10° WSW 05:41:17 31° NW 05:46:15 10° N
Meteor PRIRODA 3.7 05:38:15 10° N 05:41:51 56° WNW 05:45:24 10° SSW
Cosmos 2084 4.1 05:40:43 10° WSW 05:44:27 36° NW 05:48:03 10° NNE
Cosmos 1862 3.4 05:40:40 10° N 05:44:45 89° E 05:48:49 10° S
